Flag for Estonia Weather past 2 weeks in Narva, Estonia

Now
81 °F

Sunny.


Feels Like: 83 °F
Forecast: 69 / 86 °F
Wind: 2 mph from South

Location: Narva

Current Time: Jul 28, 2014 at 11:04:02 AM

Latest Report: Jul 28, 2014 at 10:00 AM


Visibility: 13 mi

Pressure: 30.04 "Hg

Humidity: 62%

Dew point: 67 °F

Location of NarvaLocation

Historic Weather in Narva — Graph

°F

Narva temperature yesterday

Maximum temperature yesterday: 87 °F (at 2:00 PM)
Minimum temperature yesterday: 56 °F (at 5:00 AM)
Average temperature yesterday: 74 °F

Past Weeks' High & Low Weather Summary

 TemperatureHumidityPressure
High87 °F (Jul 27, 2:00 PM)100% (Jul 17, 6:00 AM)30.22 "Hg (Jul 17, 6:00 AM)
Low51 °F (Jul 23, 6:00 AM)33% (Jul 27, 4:00 PM)29.87 "Hg (Jul 13, 10:00 PM)
Average69 °F72%30.08 "Hg
* Reported Jul 13 9:00 AM — Jul 28 9:00 AM, Narva, Weather by CustomWeather, © 2014

Note: Actual official high and low records may vary slightly from our data, if they occured in-between our weather recording intervals... More about our weather records

Advertising

Narva weather history for previous 24 hours

 ConditionsComfort  
Time TempWeatherWind HumidityBarometerVisibility
9:00 AM
Jul 28
78 °FSunny.2 mph67%30.05 "Hg12 mi
8:00 AM74 °FSunny.2 mph79%30.05 "Hg12 mi
7:00 AM71 °FSunny.2 mph85%30.06 "Hg12 mi
6:00 AM66 °FSunny.1 mph94%30.06 "Hg12 mi
5:00 AM64 °FScattered clouds.1 mph93%30.06 "Hg12 mi
4:00 AM65 °FClear.2 mph88%30.07 "Hg12 mi
3:00 AM70 °FPassing clouds.2 mph76%30.08 "Hg12 mi
2:00 AM68 °FPassing clouds.2 mph89%30.09 "Hg12 mi
1:00 AM62 °FClear.1 mph96%30.09 "Hg11 mi
12:00 AM63 °FClear.1 mph94%30.09 "Hg12 mi
11:00 PM
Jul 27
63 °FClear.1 mph93%30.09 "Hg12 mi
10:00 PM67 °FClear.1 mph88%30.08 "Hg12 mi
9:00 PM74 °FPartly sunny.1 mph70%30.08 "Hg12 mi
8:00 PM81 °FSunny.2 mph52%30.08 "Hg12 mi
7:00 PM84 °FSunny.3 mph41%30.09 "Hg12 mi
6:00 PM85 °FSunny.3 mph34%30.09 "Hg12 mi
5:00 PM86 °FSunny.3 mph35%30.10 "Hg12 mi
4:00 PM86 °FSunny.5 mph33%30.11 "Hg12 mi
3:00 PM86 °FPassing clouds.5 mph36%30.13 "Hg12 mi
2:00 PM87 °FPassing clouds.5 mph37%30.13 "Hg12 mi
1:00 PM86 °FScattered clouds.3 mph40%30.14 "Hg12 mi
12:00 PM85 °FSunny.3 mph44%30.14 "Hg12 mi
11:00 AM83 °FSunny.2 mph49%30.15 "Hg12 mi
Weather by CustomWeather, © 2014

See weather overviewHow to use our weather pages